Regional Weather Roundup
Issued by NWS

Home | Current Version | Previous Version | Graphics & Text | Print | Product List | Glossary On
Versions: 1 2 3 4 5 6 7 8 9 10 11 12 13 14 15 16 17 18 19 20 21 22 23 24 25 26 27 28 29 30 31 32 33 34 35 36 37 38 39 40 41 42 43 44 45 46 47 48 49 50
000
ASUS45 KBOI 162110
RWRID
WEATHER ROUNDUP FOR IDAHO
NATIONAL WEATHER SERVICE BOISE ID
300 PM MDT TUE SEP 16 2014

NOTE: "FAIR" INDICATES FEW OR NO CLOUDS BELOW 12000 FEET
WITH NO SIGNIFICANT WEATHER AND/OR OBSTRUCTIONS TO VISIBILITY

IDZ012-014-162200-
SOUTHWEST IDAHO


CITY           SKY/WX    TMP DP  RH WIND       PRES   REMARKS
BOISE          SUNNY     90  46  21 NW7       29.91F
CALDWELL       SUNNY     90  54  29 NE5       29.91F
MOUNTAIN HOME  MOSUNNY   89  37  15 SE6       29.91F
$$

IDZ016-017-162200-
SOUTHCENTRAL IDAHO


CITY           SKY/WX    TMP DP  RH WIND       PRES   REMARKS
BURLEY         SUNNY     89  39  17 VRB5      29.97F
JEROME         SUNNY     86  43  22 VRB3      29.99F
TWIN FALLS     SUNNY     88  44  21 N8        29.98F
$$

IDZ019>023-162200-
SOUTHEAST IDAHO


CITY           SKY/WX    TMP DP  RH WIND       PRES   REMARKS
IDAHO FALLS    MOSUNNY   82  33  17 W5        30.08F
POCATELLO      MOSUNNY   90  39  16 N13       30.03F
REXBURG        MOSUNNY   82  34  17 SW7       30.08F
$$

IDZ006-010-011-018-031-032-162200-
CENTRAL IDAHO MOUNTAINS


CITY           SKY/WX    TMP DP  RH WIND       PRES   REMARKS
MCCALL         MOSUNNY   77  45  32 S14       30.05F
HAILEY         MOSUNNY   82  43  24 S9        30.09F
STANLEY          N/A     76  40  27 N6        30.15F
SALMON         PTSUNNY   70  39  32 S3        30.04F
CHALLIS        MOSUNNY   78  41  26 NW6       30.07F
$$

IDZ002-004-006-007-026-162200-
NORTHERN IDAHO


CITY           SKY/WX    TMP DP  RH WIND       PRES   REMARKS
LEWISTON       MOSUNNY   85  38  18 W3        29.82F
LOWELL           N/A     79  48  33 CALM      29.84F
COEUR D`ALENE  MOSUNNY   81  43  26 NE5       29.88F
MULLAN PASS    CLOUDY    66  41  40 VRB3      30.10F
$$


USA.gov is the U.S. government's official web portal to all federal, state and local government web resources and services.